DKH1982 ZYCC-ZSPD

Flight info

Callsign DKH1982
Flight time N/A
Altitude 32100
Route LEMOT9YD LEMOT A588 BIDIB A345 DDG DCT BIGBU DCT DONVO A326 IKADI W113 SOSMA W108 MATNU W115 PINOT
Aircraft A320/M-SDE3FGHIRWY/LB1

Departure

Time 2026-05-06 13:21
Airport Changchun Longjia International Airport (ZYCC)

Arrival

Time N/A
Airport Shanghai Pudong International Airport (ZSPD)
Time Latitude Longitude Altitude Speed Heading
2026-05-06 13:07 43.99736 125.69531 714 ft 0 kts 138°
2026-05-06 13:09 43.99751 125.69512 716 ft 4 kts 140°
2026-05-06 13:10 43.99772 125.69488 717 ft 4 kts 139°
2026-05-06 13:10 43.99790 125.69462 717 ft 4 kts 114°
2026-05-06 13:10 43.99793 125.69429 715 ft 4 kts 64°
2026-05-06 13:10 43.99786 125.69414 717 ft 1 kts 49°
2026-05-06 13:11 43.99785 125.69412 717 ft 0 kts 49°
2026-05-06 13:14 43.99796 125.69429 715 ft 11 kts 49°
2026-05-06 13:14 43.99869 125.69504 717 ft 10 kts 359°
2026-05-06 13:14 43.99923 125.69461 717 ft 8 kts 322°
2026-05-06 13:15 43.99971 125.69430 716 ft 10 kts
2026-05-06 13:15 44.00053 125.69540 718 ft 18 kts 54°
2026-05-06 13:15 44.00138 125.69677 717 ft 19 kts 48°
2026-05-06 13:15 44.00229 125.69818 714 ft 20 kts 50°
2026-05-06 13:16 44.00321 125.69973 716 ft 22 kts 50°
2026-05-06 13:16 44.00422 125.70135 717 ft 21 kts 45°
2026-05-06 13:16 44.00479 125.70149 714 ft 7 kts 320°
2026-05-06 13:16 44.00510 125.70104 717 ft 6 kts 314°
2026-05-06 13:17 44.00534 125.70069 716 ft 4 kts 314°
2026-05-06 13:17 44.00547 125.70049 718 ft 2 kts 308°
2026-05-06 13:17 44.00559 125.70021 718 ft 3 kts 287°
2026-05-06 13:17 44.00560 125.69996 716 ft 2 kts 275°
2026-05-06 13:18 44.00556 125.69979 715 ft 1 kts 239°
2026-05-06 13:18 44.00546 125.69968 721 ft 3 kts 219°
2026-05-06 13:18 44.00528 125.69949 716 ft 4 kts 219°
2026-05-06 13:18 44.00526 125.69946 719 ft 0 kts 219°
2026-05-06 13:20 44.00458 125.69845 717 ft 49 kts 230°
2026-05-06 13:20 44.00080 125.69232 719 ft 115 kts 229°
2026-05-06 13:21 43.99437 125.68204 751 ft 161 kts 229°
2026-05-06 13:21 43.98734 125.67085 1493 ft 152 kts 229°
2026-05-06 13:21 43.98043 125.65977 2190 ft 152 kts 230°
2026-05-06 13:21 43.97353 125.64866 2842 ft 152 kts 230°
2026-05-06 13:22 43.96659 125.63750 3430 ft 153 kts 230°
2026-05-06 13:22 43.95957 125.62622 3952 ft 158 kts 231°
2026-05-06 13:22 43.95192 125.61387 4239 ft 180 kts 231°
2026-05-06 13:22 43.94324 125.59986 4503 ft 203 kts 230°
2026-05-06 13:23 43.93351 125.58417 4730 ft 227 kts 230°
2026-05-06 13:23 43.92265 125.56666 5088 ft 252 kts 230°
2026-05-06 13:23 43.91070 125.54744 5577 ft 271 kts 230°
2026-05-06 13:23 43.89832 125.52764 6362 ft 279 kts 230°
2026-05-06 13:24 43.88546 125.50712 7163 ft 285 kts 230°
2026-05-06 13:24 43.87238 125.48625 7975 ft 290 kts 230°
2026-05-06 13:24 43.85904 125.46498 8817 ft 294 kts 230°
2026-05-06 13:24 43.84549 125.44339 9657 ft 299 kts 230°
2026-05-06 13:25 43.83155 125.42149 10261 ft 312 kts 226°
2026-05-06 13:25 43.81421 125.40167 10509 ft 336 kts 213°
2026-05-06 13:25 43.79253 125.38697 10718 ft 359 kts 198°
2026-05-06 13:25 43.76770 125.37990 11194 ft 370 kts 184°
2026-05-06 13:26 43.74192 125.38143 11898 ft 374 kts 170°
2026-05-06 13:26 43.71686 125.39155 12625 ft 378 kts 159°
2026-05-06 13:26 43.69236 125.40518 13335 ft 382 kts 159°
2026-05-06 13:26 43.66794 125.41882 13982 ft 386 kts 161°
2026-05-06 13:27 43.64293 125.43279 14589 ft 389 kts 162°
2026-05-06 13:27 43.61770 125.44686 15199 ft 393 kts 162°
2026-05-06 13:27 43.59226 125.46105 15805 ft 396 kts 163°
2026-05-06 13:27 43.56662 125.47538 16412 ft 399 kts 164°
2026-05-06 13:28 43.54079 125.48986 17004 ft 402 kts 165°
2026-05-06 13:28 43.51476 125.50443 17592 ft 404 kts 167°
2026-05-06 13:28 43.48800 125.51514 18153 ft 397 kts 178°
2026-05-06 13:28 43.46087 125.51877 18673 ft 388 kts 189°
2026-05-06 13:29 43.43437 125.51556 19187 ft 378 kts 199°
2026-05-06 13:29 43.40962 125.50638 19746 ft 369 kts 207°
2026-05-06 13:29 43.38647 125.49191 20301 ft 363 kts 214°
2026-05-06 13:29 43.36401 125.47586 20851 ft 364 kts 214°
2026-05-06 13:30 43.34149 125.45991 21392 ft 364 kts 213°
2026-05-06 13:30 43.31893 125.44402 21943 ft 365 kts 213°
2026-05-06 13:30 43.29631 125.42812 22468 ft 365 kts 213°
2026-05-06 13:30 43.27364 125.41219 22966 ft 366 kts 213°
2026-05-06 13:31 43.25093 125.39624 23466 ft 367 kts 213°
2026-05-06 13:31 43.22818 125.38025 23868 ft 368 kts 213°
2026-05-06 13:31 43.20535 125.36419 24229 ft 370 kts 213°
2026-05-06 13:31 43.18238 125.34805 24577 ft 372 kts 213°
2026-05-06 13:32 43.15963 125.33209 24916 ft 374 kts 213°
2026-05-06 13:32 43.13640 125.31581 25257 ft 376 kts 213°
2026-05-06 13:32 43.11308 125.29949 25600 ft 378 kts 213°
2026-05-06 13:32 43.08961 125.28308 25926 ft 380 kts 213°
2026-05-06 13:33 43.06601 125.26654 26215 ft 382 kts 213°
2026-05-06 13:33 43.04227 125.24992 26486 ft 385 kts 213°
2026-05-06 13:33 43.01832 125.23317 26770 ft 388 kts 213°
2026-05-06 13:33 42.99425 125.21639 27066 ft 390 kts 213°
2026-05-06 13:34 42.97004 125.19957 27354 ft 392 kts 212°
2026-05-06 13:34 42.94434 125.18579 27633 ft 403 kts 204°
2026-05-06 13:34 42.91645 125.17848 27919 ft 416 kts 194°
2026-05-06 13:34 42.88703 125.17818 28172 ft 429 kts 186°
2026-05-06 13:35 42.85767 125.17950 28440 ft 424 kts 191°
2026-05-06 13:35 42.82875 125.17522 28799 ft 414 kts 199°
2026-05-06 13:35 42.80131 125.16507 29196 ft 404 kts 207°
2026-05-06 13:35 42.77598 125.14961 29603 ft 396 kts 214°
2026-05-06 13:36 42.75158 125.13218 29995 ft 395 kts 214°
2026-05-06 13:36 42.72720 125.11494 30338 ft 395 kts 214°
2026-05-06 13:36 42.70282 125.09785 30674 ft 394 kts 214°
2026-05-06 13:36 42.67843 125.08083 30966 ft 394 kts 214°
2026-05-06 13:37 42.65408 125.06382 31277 ft 394 kts 214°
2026-05-06 13:37 42.62972 125.04684 31621 ft 393 kts 215°
2026-05-06 13:37 42.60542 125.02988 31952 ft 393 kts 215°
2026-05-06 13:37 42.58114 125.01293 32066 ft 394 kts 215°
2026-05-06 13:38 42.55709 124.99614 32079 ft 394 kts 215°
2026-05-06 13:38 42.50825 124.96216 32075 ft 395 kts 215°
2026-05-06 13:39 42.45940 124.92812 32083 ft 395 kts 215°
2026-05-06 13:39 42.41053 124.89419 32080 ft 395 kts 215°
2026-05-06 13:40 42.36160 124.86039 32034 ft 395 kts 215°
2026-05-06 13:40 42.31252 124.82644 32047 ft 397 kts 215°
2026-05-06 13:41 42.26329 124.79234 32056 ft 398 kts 215°
2026-05-06 13:41 42.21401 124.75844 32060 ft 398 kts 215°
2026-05-06 13:42 42.16503 124.72475 32039 ft 398 kts 215°
2026-05-06 13:42 42.11570 124.69085 32041 ft 398 kts 215°
2026-05-06 13:43 42.06632 124.65696 32046 ft 398 kts 215°
2026-05-06 13:43 42.01690 124.62315 32034 ft 399 kts 215°
2026-05-06 13:44 41.96752 124.58923 32042 ft 398 kts 216°
2026-05-06 13:44 41.91941 124.55296 32048 ft 396 kts 218°
2026-05-06 13:45 41.87217 124.51591 32046 ft 396 kts 218°
2026-05-06 13:45 41.80040 124.46067 32038 ft 397 kts 218°
2026-05-06 13:46 41.75234 124.42423 32036 ft 397 kts 217°
2026-05-06 13:46 41.70426 124.38775 32024 ft 398 kts 218°
2026-05-06 13:47 41.65611 124.35118 32029 ft 399 kts 218°
2026-05-06 13:47 41.60776 124.31466 32031 ft 399 kts 218°
2026-05-06 13:48 41.55973 124.27852 32041 ft 399 kts 218°
2026-05-06 13:48 41.51136 124.24213 32043 ft 399 kts 218°
2026-05-06 13:49 41.46295 124.20576 32045 ft 399 kts 218°
2026-05-06 13:49 41.41214 124.17439 32047 ft 414 kts 205°
2026-05-06 13:50 41.38338 124.16736 32045 ft 428 kts 195°
2026-05-06 13:50 41.35317 124.16751 32011 ft 440 kts 187°
2026-05-06 13:50 41.29242 124.17285 32022 ft 440 kts 187°
2026-05-06 13:51 41.23129 124.17814 32007 ft 440 kts 187°
2026-05-06 13:51 41.17011 124.18331 32016 ft 441 kts 187°
2026-05-06 13:52 41.10885 124.18857 32014 ft 441 kts 187°
2026-05-06 13:52 41.04754 124.19373 32024 ft 441 kts 187°
2026-05-06 13:53 40.98612 124.19989 32006 ft 444 kts 186°
2026-05-06 13:53 40.92490 124.20733 32018 ft 446 kts 185°
2026-05-06 13:54 40.86302 124.21482 32033 ft 447 kts 186°
2026-05-06 13:54 40.80110 124.22199 32045 ft 446 kts 186°
2026-05-06 13:55 40.73935 124.22897 32051 ft 445 kts 186°
2026-05-06 13:55 40.67756 124.23599 32023 ft 446 kts 186°
2026-05-06 13:56 40.61571 124.24299 32036 ft 446 kts 186°
2026-05-06 13:56 40.55424 124.24993 32041 ft 446 kts 186°
2026-05-06 13:57 40.49238 124.25686 32031 ft 447 kts 186°
2026-05-06 13:57 40.43037 124.26387 32038 ft 447 kts 186°
2026-05-06 13:58 40.36836 124.27087 32042 ft 447 kts 186°
2026-05-06 13:58 40.30634 124.27776 32047 ft 447 kts 186°
2026-05-06 13:59 40.24542 124.27952 32042 ft 431 kts 197°
2026-05-06 13:59 40.18728 124.26567 32035 ft 424 kts 201°
2026-05-06 14:00 40.12938 124.25077 32026 ft 424 kts 201°
2026-05-06 14:00 40.07141 124.23600 32041 ft 424 kts 201°
2026-05-06 14:01 40.01338 124.22129 32048 ft 425 kts 201°
2026-05-06 14:01 39.95542 124.20654 32026 ft 424 kts 201°
2026-05-06 14:02 39.89789 124.19187 32029 ft 424 kts 201°
2026-05-06 14:02 39.83993 124.17718 32035 ft 424 kts 201°
2026-05-06 14:03 39.78196 124.16256 32023 ft 424 kts 201°
2026-05-06 14:03 39.72394 124.14795 32029 ft 424 kts 201°
2026-05-06 14:04 39.66598 124.13330 32040 ft 424 kts 201°
2026-05-06 14:04 39.60801 124.11868 32033 ft 425 kts 201°